Weather History for KNXF - February, 2014

Change the Weather History Date:

Friday, February 7, 2014

  Actual Average Record
Temperature  
Mean Temperature 56 °F -  
Max Temperature 61 °F - - ()
Min Temperature 51 °F - - ()
Degree Days  
Heating Degree Days 9    
Growing Degree Days 6 (Base 50)    
Moisture  
Dew Point 50 °F    
Average Humidity 84    
Maximum Humidity 93    
Minimum Humidity 67    
Precipitation  
Precipitation 0.00 in - - ()
Sea Level Pressure  
Sea Level Pressure 30.29 in    
Wind  
Wind Speed 8 mph (NNW)    
Max Wind Speed 13 mph    
Max Gust Speed 22 mph    
Visibility 9 miles    
Events Rain    
Averages and records for this station are not official NWS values.
T = Trace of Precipitation, MM = Missing Value Source: NWS Daily Summary

Daily Weather History Graph

Daily Weather History Graph

Search for Another Location

Airport or City:

Trip Planner

Search our weather history database for the weather conditions in past years. The results will help you decide how hot, cold, wet, or windy it might be!

Date:

Astronomy

Feb. 07, 2014 Rise Set
Actual Time 6:40 AM PST 5:27 PM PST
Civil Twilight 6:15 AM PST 5:53 PM PST
Nautical Twilight 5:45 AM PST 6:22 PM PST
Astronomical Twilight 5:16 AM PST 6:51 PM PST
Moon 11:45 AM PST (2/7) 12:58 AM PST (2/7)
Length of Visible Light 11h 38m
Length of Day
10h 46m
First Quarter, 60% of the Moon is Illuminated
Feb 7
First Quarter
Feb 14
Full
Feb 22
Last Quarter
Mar 1
New
Mar 8
First Quarter

Hourly Weather History & Observations

Time (PST) Temp. Dew Point Humidity Pressure Visibility Wind Dir Wind Speed Gust Speed Precip Events Conditions
12:16 AM 53.1 °F 51.1 °F 93% 30.04 in 2.5 mi East 11.5 mph - 0.00 in Rain Light Rain
12:20 AM 53.1 °F 51.1 °F 93% 30.04 in 3.0 mi ESE 12.7 mph 21.9 mph 0.00 in Rain Light Rain
12:56 AM 53.1 °F 50.0 °F 89% 30.30 in 10.0 mi ENE 6.9 mph - 0.00 in   Overcast
1:16 AM 53.1 °F 51.1 °F 93% 30.04 in 4.0 mi ENE 9.2 mph - 0.00 in Rain Light Rain
1:38 AM 53.1 °F 51.1 °F 93% 30.05 in 6.0 mi ENE 9.2 mph - 0.00 in   Mostly Cloudy
1:56 AM 53.1 °F 50.0 °F 89% 30.30 in 10.0 mi NE 9.2 mph - 0.00 in   Overcast
2:26 AM 53.1 °F 50.0 °F 89% 30.05 in 10.0 mi ENE 6.9 mph - N/A   Mostly Cloudy
2:45 AM 53.1 °F 50.0 °F 89% 30.05 in 10.0 mi NE 6.9 mph - N/A   Mostly Cloudy
2:56 AM 53.1 °F 50.0 °F 89% 30.30 in 10.0 mi ENE 8.1 mph - N/A   Mostly Cloudy
3:56 AM 53.1 °F 50.0 °F 89% 30.31 in 10.0 mi NE 4.6 mph - N/A   Mostly Cloudy
4:56 AM 54.0 °F 51.1 °F 90% 30.32 in 10.0 mi ENE 4.6 mph - N/A   Overcast
5:56 AM 55.0 °F 51.1 °F 86% 30.35 in 10.0 mi East 3.5 mph - 0.00 in   Overcast
6:24 AM 55.0 °F 51.1 °F 86% 30.11 in 10.0 mi Calm Calm - N/A   Overcast
6:46 AM 55.0 °F 51.1 °F 86% 30.10 in 10.0 mi SE 4.6 mph - N/A   Overcast
6:56 AM 55.0 °F 51.1 °F 86% 30.36 in 8.0 mi Variable 3.5 mph - N/A   Mostly Cloudy
7:12 AM 55.0 °F 51.1 °F 86% 30.12 in 7.0 mi West 6.9 mph - N/A   Mostly Cloudy
7:49 AM 55.9 °F 52.0 °F 87% 30.13 in 7.0 mi NNW 5.8 mph - N/A   Overcast
7:56 AM 55.9 °F 52.0 °F 87% 30.40 in 8.0 mi West 8.1 mph - N/A   Overcast
8:21 AM 55.9 °F 52.0 °F 87% 30.15 in 8.0 mi WNW 9.2 mph - N/A   Mostly Cloudy
8:56 AM 57.0 °F 52.0 °F 83% 30.43 in 9.0 mi West 8.1 mph - N/A   Overcast
9:56 AM 59.0 °F 54.0 °F 83% 30.45 in 8.0 mi West 6.9 mph - N/A   Mostly Cloudy
10:56 AM 60.1 °F 53.1 °F 78% 30.45 in 9.0 mi SW 5.8 mph - N/A   Clear
11:56 AM 59.0 °F 50.0 °F 72% 30.43 in 9.0 mi SSW 6.9 mph - N/A   Clear
12:56 PM 61.0 °F 50.0 °F 67% 30.41 in 10.0 mi SW 8.1 mph - N/A   Clear
1:56 PM 61.0 °F 50.0 °F 67% 30.40 in 10.0 mi WSW 8.1 mph - N/A   Clear
2:56 PM 61.0 °F 50.0 °F 67% 30.40 in 10.0 mi West 11.5 mph - N/A   Partly Cloudy
3:56 PM 61.0 °F 50.0 °F 67% 30.40 in 10.0 mi West 9.2 mph - N/A   Clear
4:56 PM 57.9 °F 50.0 °F 75% 30.39 in 9.0 mi West 6.9 mph - N/A   Clear
5:56 PM 55.9 °F 50.0 °F 80% 30.41 in 9.0 mi West 5.8 mph - N/A   Clear
6:56 PM 55.0 °F 50.0 °F 83% 30.43 in 9.0 mi WNW 6.9 mph - N/A   Scattered Clouds
7:10 PM 55.0 °F 50.0 °F 83% 30.17 in 9.0 mi West 5.8 mph - N/A   Mostly Cloudy
7:18 PM 55.0 °F 50.0 °F 83% 30.17 in 9.0 mi WNW 8.1 mph - N/A   Partly Cloudy
7:56 PM 54.0 °F 48.9 °F 83% 30.45 in 10.0 mi North 4.6 mph - N/A   Partly Cloudy
8:56 PM 52.0 °F 48.0 °F 86% 30.46 in 10.0 mi North 4.6 mph - N/A   Clear
9:56 PM 51.1 °F 46.9 °F 86% 30.47 in 10.0 mi North 5.8 mph - N/A   Clear
10:56 PM 52.0 °F 48.0 °F 86% 30.47 in 10.0 mi NE 4.6 mph - N/A   Clear
11:56 PM 51.1 °F 48.0 °F 89% 30.48 in 9.0 mi NE 5.8 mph - N/A   Mostly Cloudy